Lid_Strength_Index
3 2 2 3 3 2 2 2 1 1 2 2 2 1 1 2 3 4 6 3 2 -2 -2 4 5 4 4 5 3 4 8 10 10 10 9 6 7 5 4 6 5 5 5 3 2
3 3 3 3 3 3 2 2 2 1 1 2 2 1 1 1 4 7 1 -2 -3 -2 4 4 5 5 5 6 4 6 8 9 7 7 8 7 7 6 7 7 7 6 4 3 2
3 3 3 3 3 3 3 2 2 2 2 2 2 1 1 1 6 6 -3 -3 -4 -1 3 3 4 5 6 6 5 6 8 6 6 5 5 7 7 6 7 8 6 7 5 4 3
3 3 3 3 3 3 3 3 2 2 2 2 2 1 0 2 9 4 -2 -3 -4 2 4 5 4 6 7 7 7 7 6 6 5 5 6 7 6 7 6 6 4 4 4 4 4
3 3 3 3 3 3 3 3 3 2 2 2 2 1 2 5 6 4 -3 -2 2 3 4 4 5 6 7 7 6 6 6 5 5 5 6 5 6 6 6 4 4 4 4 4 4
3 3 3 4 4 3 4 4 3 3 2 2 1 0 3 6 4 4 5 4 3 3 3 4 5 5 6 6 7 6 6 6 5 5 5 6 6 6 6 4 5 4 4 4 4
3 3 4 4 4 4 4 4 3 3 2 2 0 1 5 4 3 5 5 4 3 3 4 4 4 6 5 7 6 6 7 6 5 5 6 5 7 7 5 4 5 5 4 4 4
3 4 4 4 4 4 4 4 3 2 2 1 -0 2 6 3 3 3 4 4 4 3 3 3 4 5 6 6 6 7 7 9 6 6 5 6 9 6 5 5 6 5 5 4 4
3 4 4 4 4 4 4 4 3 2 1 0 2 5 6 1 3 2 3 4 4 4 4 4 5 7 6 7 8 8 10 9 7 5 6 6 8 6 5 6 6 6 5 5 4
3 4 4 4 4 4 4 4 3 2 1 1 1 5 4 5 3 3 2 3 4 5 5 5 6 6 7 7 11 10 10 9 9 7 6 7 8 6 5 6 6 6 5 5 5
3 4 4 4 5 5 4 3 6 7 4 8 7 6 4 3 4 3 3 4 4 5 7 7 7 8 8 7 7 8 8 9 7 6 6 7 7 6 5 6 6 6 6 5 5
3 4 4 4 5 4 5 5 5 5 6 5 6 6 5 4 6 4 3 5 6 8 8 8 8 8 7 7 8 8 9 8 7 6 7 7 7 6 5 5 5 6 6 5 4
3 4 4 5 4 5 6 6 4 4 6 5 5 5 4 5 6 5 3 5 7 8 8 9 8 8 8 8 8 8 8 8 8 7 7 7 8 7 6 5 5 5 5 4 4
3 4 5 5 6 6 6 5 4 4 7 7 5 5 5 5 6 4 4 4 6 7 7 8 8 8 8 8 7 8 8 8 9 8 10 8 11 8 7 7 6 5 5 5 4
4 4 5 5 6 4 4 4 5 5 12 6 6 4 6 6 6 6 4 4 6 6 7 8 8 8 8 7 7 8 7 8 8 9 9 9 10 8 8 8 8 6 5 4 4
4 5 5 5 5 3 4 4 4 9 14 8 6 6 7 7 6 6 5 4 4 6 6 6 7 7 7 7 7 7 8 8 8 9 11 10 10 10 10 9 8 6 6 5 4
5 6 5 4 5 4 4 4 9 11 7 8 8 8 7 8 7 7 7 7 7 9 9 8 8 7 7 8 7 7 8 11 12 11 12 10 11 10 8 7 7 7 6 5 4
6 6 5 4 4 4 4 6 12 9 9 7 8 9 9 8 8 8 8 8 8 8 9 10 10 8 7 7 8 8 8 10 15 13 12 9 12 9 7 6 6 6 5 5 5
6 5 4 3 4 5 4 10 10 9 7 8 8 9 9 8 8 8 8 8 7 7 9 10 10 7 7 7 7 9 9 9 10 11 12 10 10 8 7 7 7 6 6 6 5
5 3 2 3 4 4 6 11 8 7 6 7 9 8 9 8 8 8 9 8 8 8 6 8 10 8 7 7 7 7 8 10 9 14 15 12 12 10 10 8 8 7 7 6 5
5 5 2 4 4 4 9 8 7 6 5 7 8 8 8 8 8 9 9 7 6 8 8 8 8 8 7 8 9 8 9 10 9 10 13 14 11 8 8 8 8 7 6 6 5
5 7 2 4 6 7 8 7 9 7 6 7 7 7 8 8 9 9 9 7 6 7 9 7 8 9 9 8 8 8 9 9 10 12 11 11 11 7 7 7 6 6 6 5 5
6 5 2 3 8 8 7 8 7 7 7 7 8 7 7 8 9 8 8 7 7 6 7 7 9 11 10 9 8 9 9 10 10 9 11 12 10 7 7 7 6 6 6 5 5
5 8 5 4 6 6 8 8 8 7 7 7 7 7 7 8 7 8 8 7 7 7 5 5 9 10 11 10 9 10 10 10 9 10 10 10 9 7 7 8 6 6 6 5 5
7 8 7 8 7 6 6 7 8 8 7 7 7 7 7 9 8 9 8 7 7 6 8 7 10 9 10 10 10 10 9 9 9 9 10 9 9 7 8 8 7 6 6 6 5
6 7 7 7 7 7 9 8 8 8 8 7 7 8 8 8 8 9 8 7 8 6 8 9 10 9 10 10 9 9 8 8 8 8 8 9 9 8 7 6 7 6 6 6 5
5 6 7 10 8 8 8 8 8 7 6 6 7 7 7 7 7 7 7 7 7 7 8 8 9 10 11 10 9 11 9 8 8 9 9 10 9 7 8 7 7 6 6 5 5